Вернуться в каталог

STARLINK-37138

АктивенСвязьSSO
NORAD 68308·PAYLOAD·🇺🇸 United States

Запущен Mar 20, 2026 с Vandenberg Space Force Base

Loading…

Ближайшие Пролёты (ближайшие 24 часа)

TLE

СвежийSource: CelesTrak SupGP

Эпоха: Sep 15, 2026, 04:07 UTC

1 68308C 26057Q   26258.17201389  .00019310  00000+0  59949-3 0  2589
2 68308  97.2854  23.6868 0001432  85.0705 142.1808 15.33425487    17

Отслеживайте STARLINK-37138 в реальном времени с AllMySat

Download on the App Store